Regional Weather Roundup
Issued by NWS

Current Version | Previous Version | Text Only | Print | Product List | Glossary On
Versions: 1 2 3 4 5 6 7 8 9 10 11 12 13 14 15 16 17 18 19 20 21 22 23 24 25 26 27 28 29 30 31 32 33 34 35 36 37 38 39 40 41 42 43 44 45 46 47 48 49 50
000
ASUS42 KKEY 202110
RWRKEY

FLORIDA REGIONAL WEATHER ROUNDUP FOR THE FLORIDA KEYS
NATIONAL WEATHER SERVICE KEY WEST FLORIDA
500 PM EDT MON OCT 20 2014

...SOUTH FLORIDA AND THE KEYS...

CITY           SKY/WX    TMP DP  RH WIND       PRES   REMARKS
FORT MYERS     CLOUDY    86  64  47 S3        29.92F
SW REGIONAL AP CLOUDY    85  64  49 SE5       29.93F
NAPLES         CLOUDY    85  67  54 SE7       29.93S
MIAMI          LGT RAIN  78  72  81 S9        29.95S
WEST KENDALL   HVY RAIN  75  72  90 SE10      29.96S FOG
HOMESTEAD      MOSUNNY   74  71  90 N13       29.94F
MARATHON       LGT RAIN  77  75  93 E8        29.92F
BOCA CHICA NAS CLOUDY    80  72  76 SE15G23   29.92S THUNDER
KEY WEST INTL  CLOUDY    82  75  79 E5        29.92F

...INTERNATIONAL WEATHER...

CITY           SKY/WX    TMP DP  RH WIND       PRES   REMARKS
NASSAU BAHAMAS MOSUNNY   84  73  70 SE6       29.96S HX  91
CANCUN MEXICO  LGT RAIN  77  75  94 E15       29.83F
COZUMEL MEXICO PTSUNNY   79  73  83 E14       29.82F

ADJACENT COASTAL WATERS...

STATION/POSITION TIME  SKY/WX   TEMP    WIND        PRES    WAVE
                                AIR SEA DIR/SP/G            HT/PER
                 (UTC)          (F)     (DEG/KT/KT) (MB)    (FT/S)
PULASKI SHOAL LI 2000            82     190/  7/  7 1013.1R
SAND KEY         2037            81     150/  9/ 11 1012.8F
SOMBRERO KEY     2100            77     100/  6/  7 1014.4R
LONG KEY         1954            80 82  150/  8/  9 1014.4F
MOLASSES REEF    2100            81 84  120/ 12/ 13 1013.5F
FOWEY ROCKS      2100            79 83  120/ 12/ 16 1014.2F
Buoy 42080       NOT AVBL

$$


USA.gov is the U.S. government's official web portal to all federal, state and local government web resources and services.